User: anonymous   Login
Location: Lombard
(41.8800°N, 88.0080°W)
Time: 04:03:29
(UTC-05:00)
Language:

MOZHAYETS 4 - Orbit

View from above orbital plane
View from above orbital plane
View from above satellite
View from above satellite

Ground track
Ground track

The orbit data is extracted from the following two-line orbital elements,

1 27939U 03042A   22136.21145102  .00000919  00000-0  17150-3 0  9995
2 27939  98.1864 276.9498 0011788 313.5780  46.4454 14.67305417996318
Epoch (UTC): 16 May 2022 05:04:29
Eccentricity: 0.0011788
inclination: 98.1864°
perigee height: 661 km
apogee height: 678 km
right ascension of ascending node: 276.9498°
argument of perigee: 313.5780°
revolutions per day: 14.67305417
mean anomaly at epoch: 46.4454°
orbit number at epoch: 99631

The dashed part of the orbit path shows where the satellite is in the earth's shadow,  

DLR